Flag for Australia Weather past 2 weeks in The Settlement, Christmas Island, Australia

Now
73 °F

Passing clouds.


Feels Like: 74 °F
Forecast: 73 / 79 °F
Wind: 13 mph from Southeast

Location: Christmas Island Aerodrome

Current Time: Aug 30, 2014 at 7:20:57 PM

Latest Report: Aug 30, 2014 at 6:00 PM


Visibility: N/A

Pressure: 29.92 "Hg

Humidity: 78%

Dew point: 66 °F

Location of The SettlementLocation

Historic Weather in The Settlement — Graph

°F

The Settlement temperature yesterday

Maximum temperature yesterday: 79 °F (at 10:03 AM)
Minimum temperature yesterday: 73 °F (at 12:00 AM)
Average temperature yesterday: 75 °F

Past Weeks' High & Low Weather Summary

 TemperatureHumidityPressure
High81 °F (Aug 26, 10:00 AM)89% (Aug 21, 5:00 PM)30.07 "Hg (Aug 21, 5:00 PM)
Low73 °F (Aug 17, 5:00 AM)58% (Aug 17, 11:00 AM)29.86 "Hg (Aug 22, 3:00 PM)
Average76 °F75%29.96 "Hg
* Reported Aug 15 6:00 PM — Aug 30 6:00 PM, The Settlement, Weather by CustomWeather, © 2014

Note: Actual official high and low records may vary slightly from our data, if they occured in-between our weather recording intervals... More about our weather records

Advertising

The Settlement weather history for previous 24 hours

 ConditionsComfort  
Time TempWeatherWind HumidityBarometerVisibility
6:00 PM
Aug 30
73 °FPassing clouds.13 mph78%29.92 "HgN/A
5:00 PM75 °FScattered clouds.14 mph74%29.89 "HgN/A
4:00 PM77 °FScattered clouds.14 mph69%29.89 "HgN/A
3:00 PM77 °FScattered clouds.15 mph69%29.89 "HgN/A
2:00 PM79 °FScattered clouds.15 mph65%29.89 "HgN/A
1:00 PM79 °FScattered clouds.15 mph61%29.92 "HgN/A
12:00 PM79 °FScattered clouds.16 mph65%29.95 "HgN/A
11:00 AM79 °FScattered clouds.14 mph65%29.98 "HgN/A
10:00 AM77 °FPartly sunny.14 mph69%29.98 "HgN/A
9:00 AM77 °FScattered clouds.15 mph69%30.01 "HgN/A
8:00 AM75 °FPartly sunny.13 mph74%29.98 "HgN/A
7:00 AM75 °FPartly sunny.12 mph78%29.98 "HgN/A
6:00 AM73 °FPassing clouds.10 mph78%29.95 "HgN/A
5:00 AM73 °FPassing clouds.10 mph78%29.95 "HgN/A
4:00 AM73 °FPassing clouds.12 mph83%29.95 "HgN/A
2:00 AM73 °FPassing clouds.12 mph78%29.95 "HgN/A
1:00 AM73 °FMostly cloudy.9 mph83%29.95 "HgN/A
12:00 AM75 °FOvercast.9 mph78%29.98 "HgN/A
11:00 PM
Aug 29
73 °FPassing clouds.9 mph83%29.98 "HgN/A
10:00 PM75 °FMostly cloudy.12 mph78%29.98 "HgN/A
9:00 PM75 °FPassing clouds.9 mph78%29.98 "HgN/A
8:00 PM75 °FPassing clouds.10 mph78%29.98 "HgN/A
7:00 PM75 °FPassing clouds.12 mph78%29.95 "HgN/A
Weather by CustomWeather, © 2014

See weather overviewHow to use our weather pages